Location: ??????
(41.3747°N, 22.5491°E)
Time: 05:35:55
(UTC+00:00)

Meteor 1-20 Rocket - Pass Details

Date: 01 December 2020
Orbit: 819 x 892 km, 81.2° (Epoch: 20 January)

Event Time Altitude Azimuth Distance (km) Brightness Sun altitude
Rises 15:56:07 0° 349° (N) 3,514 7.3 -10.2°
Reaches altitude 10° 15:58:35 10° 350° (N) 2,569 6.6 -10.6°
Maximum altitude 16:04:28 87° 262° (W) 894 4.4 -11.7°
Drops below altitude 10° 16:10:14 10° 174° (S) 2,525 6.8 -12.7°
Sets 16:12:39 0° 174° (S) 3,450 7.5 -13.1°
